Aeroporto :
LOGIN :

Iscrizione | Disclaimer

   EN    FR    IT 

 










Sommario :    VFR   VFR Marginale   IFR   IFR Intensivo   IFR Molto Intensivo
Visibilità : 
Base nubi : 
>= 8 km
>= 3000ft
5 / 8 km
1000 / 3000 ft
1500m / 5 km
500 / 1000 ft
800 / 1500m
200 / 500 ft
< 800m
< 200 ft
Simboli :   Temporali  Nebbia  Neve Forte  Precipitazioni Forti  Vento > 20 kt
SIGMETs :   Varie  Temporali  Ghiacco  Turbolenza  Onda orograficha  Ceneri Vulcaniche






- Altitudine del aeroporto : 0 ft


ENSL - Sleipner A Platform

ULTIMO METAR :
  • 281050Z AUTO 01035KT 9999NDV SCT030/// SCT038/// 06/M01 Q1034 W04/S4

METARs OBSOLETI :
  • 281020Z AUTO 36036KT 9999NDV FEW034/// 06/M03 Q1034 W///S/
  • 280950Z AUTO 36034KT 9999NDV BKN035/// BKN044/// 06/M02 Q1033 W///S/
  • 280920Z AUTO /////KT //// /// ///// Q//// W///S/
  • 280850Z AUTO /////KT //// /// ///// Q//// W///S/
  • 280820Z AUTO /////KT //// /// ///// Q//// W///S/
  • 280750Z AUTO /////KT //// /// ///// Q//// W///S/

Previsioni scadute.



MetMap, La meteo Aeronautica in un colpo d'occhio ! - Copyright ORBIFLY Dicembre 2007 - Disclaimer

ORBIFLY MET'MAP TEAM :

Programmazione e sviluppo : Alexandra Zaïnal
Concezione : Baudouin d'Aumeries
Aiuto per la programmazione : Marc-Olivier Méhu
Supporto tecnico e logistico : Manuel Goepfert
Aiuto per la traduzione : Arnaldo La Scala

Contatto : metmap@orbifly.com




FONTI E CREDITI :

   NOAA